Time,TemperatureF,DewpointF,PressureIn,WindDirection,WindDirectionDegrees,WindSpeedMPH,WindSpeedGustMPH,Humidity,HourlyPrecipIn,Conditions,Clouds,dailyrainin,SoftwareType,DateUTC
2013-04-23 00:01:00,41.0,17.1,30.40,SSE,157,7.6,14.1,38,0.00,,,0.00,WUHU21623XXSP,2013-04-23 04:01:00,
2013-04-23 00:06:00,41.0,17.7,30.40,SSE,148,5.7,14.1,39,0.00,,,0.00,WUHU21623XXSP,2013-04-23 04:06:00,
2013-04-23 00:11:00,40.6,17.4,30.40,South,169,5.0,11.2,39,0.00,,,0.00,WUHU21623XXSP,2013-04-23 04:11:00,
2013-04-23 00:16:00,40.4,17.2,30.40,SSE,157,6.5,11.2,39,0.00,,,0.00,WUHU21623XXSP,2013-04-23 04:16:00,
2013-04-23 00:21:00,40.4,17.2,30.40,SSE,160,6.3,11.6,39,0.00,,,0.00,WUHU21623XXSP,2013-04-23 04:21:00,
2013-04-23 00:26:00,40.1,16.9,30.41,SSE,159,5.5,11.6,39,0.00,,,0.00,WUHU21623XXSP,2013-04-23 04:26:00,
2013-04-23 00:31:00,40.1,17.5,30.41,SSE,153,4.9,12.5,40,0.00,,,0.00,WUHU21623XXSP,2013-04-23 04:31:00,
2013-04-23 00:36:00,39.9,17.3,30.41,South,180,7.6,16.1,40,0.00,,,0.00,WUHU21623XXSP,2013-04-23 04:36:00,
2013-04-23 00:41:00,39.9,17.3,30.41,SSE,159,7.1,16.1,40,0.00,,,0.00,WUHU21623XXSP,2013-04-23 04:41:00,
2013-04-23 00:46:00,39.7,17.1,30.41,SSE,165,6.3,15.4,40,0.00,,,0.00,WUHU21623XXSP,2013-04-23 04:46:00,
2013-04-23 00:51:00,39.7,17.1,30.40,SSE,157,9.2,15.4,40,0.00,,,0.00,WUHU21623XXSP,2013-04-23 04:51:00,
2013-04-23 00:56:00,39.7,17.1,30.41,SE,135,10.5,14.1,40,0.00,,,0.00,WUHU21623XXSP,2013-04-23 04:56:00,
2013-04-23 01:01:00,39.5,17.5,30.40,SSE,149,5.4,14.1,41,0.00,,,0.00,WUHU21623XXSP,2013-04-23 05:01:00,
2013-04-23 01:06:00,39.5,18.1,30.40,SSE,168,4.7,15.7,42,0.00,,,0.00,WUHU21623XXSP,2013-04-23 05:06:00,
2013-04-23 01:11:00,39.5,18.1,30.41,South,176,6.8,18.6,42,0.00,,,0.00,WUHU21623XXSP,2013-04-23 05:11:00,
2013-04-23 01:16:00,39.4,18.6,30.40,South,181,5.9,18.6,43,0.00,,,0.00,WUHU21623XXSP,2013-04-23 05:16:00,
2013-04-23 01:21:00,39.4,18.6,30.40,SSE,167,5.0,14.1,43,0.00,,,0.00,WUHU21623XXSP,2013-04-23 05:21:00,
2013-04-23 01:26:00,39.2,19.0,30.40,SSE,165,6.7,13.2,44,0.00,,,0.00,WUHU21623XXSP,2013-04-23 05:26:00,
2013-04-23 01:31:00,39.0,18.8,30.40,SE,135,8.3,13.2,44,0.00,,,0.00,WUHU21623XXSP,2013-04-23 05:31:00,
2013-04-23 01:36:00,39.0,18.8,30.40,SSE,157,7.4,14.8,44,0.00,,,0.00,WUHU21623XXSP,2013-04-23 05:36:00,
2013-04-23 01:41:00,38.8,19.1,30.40,South,181,7.9,18.3,45,0.00,,,0.00,WUHU21623XXSP,2013-04-23 05:41:00,
2013-04-23 01:46:00,38.8,19.1,30.40,South,178,8.2,18.3,45,0.00,,,0.00,WUHU21623XXSP,2013-04-23 05:46:00,
2013-04-23 01:51:00,38.8,19.1,30.40,South,180,7.2,13.9,45,0.00,,,0.00,WUHU21623XXSP,2013-04-23 05:51:00,
2013-04-23 01:56:00,38.6,19.5,30.40,South,180,11.9,16.3,46,0.00,,,0.00,WUHU21623XXSP,2013-04-23 05:56:00,
2013-04-23 02:01:00,38.6,19.5,30.40,SSE,163,3.5,16.3,46,0.00,,,0.00,WUHU21623XXSP,2013-04-23 06:01:00,
2013-04-23 02:06:00,38.5,19.4,30.40,South,175,6.5,15.4,46,0.00,,,0.00,WUHU21623XXSP,2013-04-23 06:06:00,
2013-04-23 02:11:00,38.3,19.2,30.40,South,174,7.9,13.4,46,0.00,,,0.00,WUHU21623XXSP,2013-04-23 06:11:00,
2013-04-23 02:16:00,38.1,19.0,30.40,South,171,6.1,15.7,46,0.00,,,0.00,WUHU21623XXSP,2013-04-23 06:16:00,
2013-04-23 02:21:00,37.9,19.4,30.39,South,180,8.9,15.7,47,0.00,,,0.00,WUHU21623XXSP,2013-04-23 06:21:00,
2013-04-23 02:26:00,37.7,19.7,30.40,SSE,161,5.7,13.2,48,0.00,,,0.00,WUHU21623XXSP,2013-04-23 06:26:00,
2013-04-23 02:31:00,37.6,19.6,30.40,SSE,157,7.4,13.2,48,0.00,,,0.00,WUHU21623XXSP,2013-04-23 06:31:00,
2013-04-23 02:36:00,37.4,19.9,30.40,South,176,6.2,15.9,49,0.00,,,0.00,WUHU21623XXSP,2013-04-23 06:36:00,
2013-04-23 02:41:00,37.4,20.9,30.40,South,182,8.2,15.9,51,0.00,,,0.00,WUHU21623XXSP,2013-04-23 06:41:00,
2013-04-23 02:46:00,37.4,20.9,30.39,South,180,15.2,15.4,51,0.00,,,0.00,WUHU21623XXSP,2013-04-23 06:46:00,
2013-04-23 02:51:00,37.0,21.0,30.39,SSE,165,6.1,15.2,52,0.00,,,0.00,WUHU21623XXSP,2013-04-23 06:51:00,
2013-04-23 02:56:00,37.0,21.0,30.39,SW,225,8.7,11.4,52,0.00,,,0.00,WUHU21623XXSP,2013-04-23 06:56:00,
2013-04-23 03:01:00,37.0,21.4,30.39,South,186,4.8,11.2,53,0.00,,,0.00,WUHU21623XXSP,2013-04-23 07:01:00,
2013-04-23 03:06:00,36.8,21.7,30.39,South,170,9.3,19.0,54,0.00,,,0.00,WUHU21623XXSP,2013-04-23 07:06:00,
2013-04-23 03:11:00,36.8,21.7,30.39,SSW,202,10.7,19.0,54,0.00,,,0.00,WUHU21623XXSP,2013-04-23 07:11:00,
2013-04-23 03:16:00,36.7,21.6,30.39,South,188,7.9,20.4,54,0.00,,,0.00,WUHU21623XXSP,2013-04-23 07:16:00,
2013-04-23 03:21:00,36.7,21.6,30.39,SW,225,11.6,20.4,54,0.00,,,0.00,WUHU21623XXSP,2013-04-23 07:21:00,
2013-04-23 03:26:00,36.5,21.9,30.39,South,169,7.5,15.7,55,0.00,,,0.00,WUHU21623XXSP,2013-04-23 07:26:00,
2013-04-23 03:31:00,36.3,21.7,30.39,South,181,7.0,15.4,55,0.00,,,0.00,WUHU21623XXSP,2013-04-23 07:31:00,
2013-04-23 03:36:00,36.1,21.5,30.39,South,180,11.2,13.0,55,0.00,,,0.00,WUHU21623XXSP,2013-04-23 07:36:00,
2013-04-23 03:41:00,36.1,21.5,30.39,South,180,7.4,14.1,55,0.00,,,0.00,WUHU21623XXSP,2013-04-23 07:41:00,
2013-04-23 03:46:00,35.9,21.7,30.39,SSE,157,13.4,14.1,56,0.00,,,0.00,WUHU21623XXSP,2013-04-23 07:46:00,
2013-04-23 03:51:00,35.9,21.7,30.39,South,177,7.0,15.4,56,0.00,,,0.00,WUHU21623XXSP,2013-04-23 07:51:00,
2013-04-23 03:56:00,35.9,21.7,30.39,South,175,7.8,15.4,56,0.00,,,0.00,WUHU21623XXSP,2013-04-23 07:56:00,
2013-04-23 04:01:00,35.8,22.1,30.39,SSW,194,4.9,15.0,57,0.00,,,0.00,WUHU21623XXSP,2013-04-23 08:01:00,
2013-04-23 04:06:00,35.6,21.9,30.39,South,171,8.3,18.3,57,0.00,,,0.00,WUHU21623XXSP,2013-04-23 08:06:00,
2013-04-23 04:11:00,35.6,21.9,30.39,NE,45,11.2,19.2,57,0.00,,,0.00,WUHU21623XXSP,2013-04-23 08:11:00,
2013-04-23 04:16:00,35.6,22.3,30.39,South,180,8.9,19.2,58,0.00,,,0.00,WUHU21623XXSP,2013-04-23 08:16:00,
2013-04-23 04:21:00,35.4,22.1,30.39,SSE,165,9.8,18.6,58,0.00,,,0.00,WUHU21623XXSP,2013-04-23 08:21:00,
2013-04-23 04:26:00,35.2,21.9,30.39,SSE,162,7.2,17.0,58,0.00,,,0.00,WUHU21623XXSP,2013-04-23 08:26:00,
2013-04-23 04:31:00,35.2,22.3,30.39,South,173,4.8,13.9,59,0.00,,,0.00,WUHU21623XXSP,2013-04-23 08:31:00,
2013-04-23 04:36:00,34.9,22.1,30.39,South,172,4.7,13.9,59,0.00,,,0.00,WUHU21623XXSP,2013-04-23 08:36:00,
2013-04-23 04:41:00,34.7,22.3,30.39,SE,135,9.2,11.6,60,0.00,,,0.00,WUHU21623XXSP,2013-04-23 08:41:00,
2013-04-23 04:46:00,34.7,22.3,30.39,South,175,7.0,13.4,60,0.00,,,0.00,WUHU21623XXSP,2013-04-23 08:46:00,
2013-04-23 04:51:00,34.3,22.3,30.39,South,173,4.6,15.4,61,0.00,,,0.00,WUHU21623XXSP,2013-04-23 08:51:00,
2013-04-23 04:56:00,34.3,22.3,30.39,South,187,3.5,15.4,61,0.00,,,0.00,WUHU21623XXSP,2013-04-23 08:56:00,
2013-04-23 05:01:00,34.1,22.1,30.38,SSE,157,8.7,16.8,61,0.00,,,0.00,WUHU21623XXSP,2013-04-23 09:01:00,
2013-04-23 05:06:00,34.1,22.5,30.38,SSW,202,6.5,16.8,62,0.00,,,0.00,WUHU21623XXSP,2013-04-23 09:06:00,
2013-04-23 05:11:00,34.1,22.5,30.38,SSE,160,6.8,14.1,62,0.00,,,0.00,WUHU21623XXSP,2013-04-23 09:11:00,
2013-04-23 05:16:00,34.1,22.5,30.38,SSE,166,4.5,14.1,62,0.00,,,0.00,WUHU21623XXSP,2013-04-23 09:16:00,
2013-04-23 05:21:00,34.1,22.9,30.38,South,174,6.9,14.1,63,0.00,,,0.00,WUHU21623XXSP,2013-04-23 09:21:00,
2013-04-23 05:26:00,34.0,22.8,30.38,SSE,157,7.8,14.1,63,0.00,,,0.00,WUHU21623XXSP,2013-04-23 09:26:00,
2013-04-23 05:31:00,33.8,22.6,30.38,SSE,157,4.7,11.4,63,0.00,,,0.00,WUHU21623XXSP,2013-04-23 09:31:00,
2013-04-23 05:36:00,33.8,23.0,30.38,SE,135,7.2,14.3,64,0.00,,,0.00,WUHU21623XXSP,2013-04-23 09:36:00,
2013-04-23 05:41:00,34.0,23.5,30.38,South,169,7.4,14.3,65,0.00,,,0.00,WUHU21623XXSP,2013-04-23 09:41:00,
2013-04-23 05:46:00,33.8,23.3,30.38,South,178,5.9,13.6,65,0.00,,,0.00,WUHU21623XXSP,2013-04-23 09:46:00,
2013-04-23 05:51:00,33.8,23.3,30.38,South,173,5.4,13.4,65,0.00,,,0.00,WUHU21623XXSP,2013-04-23 09:51:00,
2013-04-23 05:56:00,33.8,23.3,30.38,South,182,5.3,13.4,65,0.00,,,0.00,WUHU21623XXSP,2013-04-23 09:56:00,
2013-04-23 06:01:00,33.8,23.3,30.37,SSE,165,6.2,11.0,65,0.00,,,0.00,WUHU21623XXSP,2013-04-23 10:01:00,
2013-04-23 06:06:00,33.6,23.2,30.38,SSE,157,6.5,10.1,65,0.00,,,0.00,WUHU21623XXSP,2013-04-23 10:06:00,
2013-04-23 06:11:00,33.4,23.3,30.38,SE,135,5.1,10.1,66,0.00,,,0.00,WUHU21623XXSP,2013-04-23 10:11:00,
2013-04-23 06:16:00,33.2,23.1,30.38,SSE,159,4.5,10.5,66,0.00,,,0.00,WUHU21623XXSP,2013-04-23 10:16:00,
2013-04-23 06:21:00,33.2,23.1,30.38,SE,138,3.8,10.5,66,0.00,,,0.00,WUHU21623XXSP,2013-04-23 10:21:00,
2013-04-23 06:26:00,33.2,23.1,30.38,WSW,247,3.6,9.2,66,0.00,,,0.00,WUHU21623XXSP,2013-04-23 10:26:00,
2013-04-23 06:31:00,33.2,23.5,30.38,SE,135,4.2,8.3,67,0.00,,,0.00,WUHU21623XXSP,2013-04-23 10:31:00,
2013-04-23 06:36:00,33.2,23.5,30.38,ESE,112,5.6,12.1,67,0.00,,,0.00,WUHU21623XXSP,2013-04-23 10:36:00,
2013-04-23 06:41:00,32.9,23.6,30.38,SSE,160,5.8,12.1,68,0.00,,,0.00,WUHU21623XXSP,2013-04-23 10:41:00,
2013-04-23 06:46:00,33.2,23.8,30.37,SSE,160,2.7,10.7,68,0.00,,,0.00,WUHU21623XXSP,2013-04-23 10:46:00,
2013-04-23 06:51:00,33.2,23.8,30.37,SE,135,3.4,8.9,68,0.00,,,0.00,WUHU21623XXSP,2013-04-23 10:51:00,
2013-04-23 06:56:00,33.2,23.8,30.37,SSE,157,4.5,5.6,68,0.00,,,0.00,WUHU21623XXSP,2013-04-23 10:56:00,
2013-04-23 07:01:00,32.9,23.6,30.37,SE,140,1.3,5.6,68,0.00,,,0.00,WUHU21623XXSP,2013-04-23 11:01:00,
2013-04-23 07:06:00,32.9,23.6,30.37,SSE,153,1.8,4.9,68,0.00,,,0.00,WUHU21623XXSP,2013-04-23 11:06:00,
2013-04-23 07:11:00,33.1,23.8,30.37,SSE,153,3.1,6.3,68,0.00,,,0.00,WUHU21623XXSP,2013-04-23 11:11:00,
2013-04-23 07:16:00,33.2,23.8,30.37,SSE,157,3.8,6.3,68,0.00,,,0.00,WUHU21623XXSP,2013-04-23 11:16:00,
2013-04-23 07:21:00,33.4,24.0,30.37,SW,225,2.2,6.3,68,0.00,,,0.00,WUHU21623XXSP,2013-04-23 11:21:00,
2013-04-23 07:26:00,33.8,24.4,30.37,South,170,2.7,4.7,68,0.00,,,0.00,WUHU21623XXSP,2013-04-23 11:26:00,
2013-04-23 07:31:00,34.0,25.0,30.37,SSE,155,2.0,5.1,69,0.00,,,0.00,WUHU21623XXSP,2013-04-23 11:31:00,
2013-04-23 07:36:00,34.3,25.3,30.37,SSE,161,4.0,7.2,69,0.00,,,0.00,WUHU21623XXSP,2013-04-23 11:36:00,
2013-04-23 07:41:00,34.5,25.1,30.37,SSE,157,7.4,8.1,68,0.00,,,0.00,WUHU21623XXSP,2013-04-23 11:41:00,
2013-04-23 07:46:00,35.0,25.6,30.36,SSE,157,4.9,11.9,68,0.00,,,0.00,WUHU21623XXSP,2013-04-23 11:46:00,
2013-04-23 07:51:00,35.4,26.0,30.36,SSE,157,5.6,11.9,68,0.00,,,0.00,WUHU21623XXSP,2013-04-23 11:51:00,
2013-04-23 07:56:00,35.9,26.4,30.37,SSE,156,3.7,11.9,68,0.00,,,0.00,WUHU21623XXSP,2013-04-23 11:56:00,
2013-04-23 08:01:00,36.3,26.5,30.36,SW,217,3.4,11.9,67,0.00,,,0.00,WUHU21623XXSP,2013-04-23 12:01:00,
2013-04-23 08:06:00,36.8,26.9,30.37,SSE,163,5.2,9.4,67,0.00,,,0.00,WUHU21623XXSP,2013-04-23 12:06:00,
2013-04-23 08:11:00,37.4,27.2,30.36,SSE,162,7.2,11.0,66,0.00,,,0.00,WUHU21623XXSP,2013-04-23 12:11:00,
2013-04-23 08:16:00,37.7,27.1,30.36,South,183,4.0,11.0,65,0.00,,,0.00,WUHU21623XXSP,2013-04-23 12:16:00,
2013-04-23 08:21:00,38.3,27.3,30.36,South,173,6.2,11.0,64,0.00,,,0.00,WUHU21623XXSP,2013-04-23 12:21:00,
2013-04-23 08:26:00,38.8,27.7,30.36,SSE,149,6.2,11.0,64,0.00,,,0.00,WUHU21623XXSP,2013-04-23 12:26:00,
2013-04-23 08:31:00,39.2,27.7,30.36,SSW,202,7.4,9.8,63,0.00,,,0.00,WUHU21623XXSP,2013-04-23 12:31:00,
2013-04-23 08:36:00,39.5,28.0,30.36,SSE,157,6.3,11.0,63,0.00,,,0.00,WUHU21623XXSP,2013-04-23 12:36:00,
2013-04-23 08:41:00,40.1,28.2,30.36,SE,135,7.4,11.6,62,0.00,,,0.00,WUHU21623XXSP,2013-04-23 12:41:00,
2013-04-23 08:46:00,40.6,28.3,30.36,SE,138,4.6,11.6,61,0.00,,,0.00,WUHU21623XXSP,2013-04-23 12:46:00,
2013-04-23 08:51:00,41.0,28.2,30.35,SSE,157,8.7,9.2,60,0.00,,,0.00,WUHU21623XXSP,2013-04-23 12:51:00,
2013-04-23 08:56:00,41.3,28.5,30.35,SSW,202,5.8,9.6,60,0.00,,,0.00,WUHU21623XXSP,2013-04-23 12:56:00,
2013-04-23 09:01:00,41.7,28.5,30.35,SE,145,5.4,11.6,59,0.00,,,0.00,WUHU21623XXSP,2013-04-23 13:01:00,
2013-04-23 09:06:00,42.2,29.0,30.35,SSE,157,10.1,13.0,59,0.00,,,0.00,WUHU21623XXSP,2013-04-23 13:06:00,
2013-04-23 09:11:00,42.4,28.7,30.34,SSE,157,10.5,13.0,58,0.00,,,0.00,WUHU21623XXSP,2013-04-23 13:11:00,
2013-04-23 09:16:00,43.0,29.3,30.34,SSE,163,6.3,12.1,58,0.00,,,0.00,WUHU21623XXSP,2013-04-23 13:16:00,
2013-04-23 09:21:00,43.3,29.1,30.34,SE,143,4.6,11.4,57,0.00,,,0.00,WUHU21623XXSP,2013-04-23 13:21:00,
2013-04-23 09:26:00,43.7,29.5,30.34,South,180,7.8,10.7,57,0.00,,,0.00,WUHU21623XXSP,2013-04-23 13:26:00,
2013-04-23 09:31:00,44.2,29.5,30.33,SSE,159,4.3,12.1,56,0.00,,,0.00,WUHU21623XXSP,2013-04-23 13:31:00,
2013-04-23 09:36:00,44.6,29.5,30.33,SE,135,4.5,12.1,55,0.00,,,0.00,WUHU21623XXSP,2013-04-23 13:36:00,
2013-04-23 09:41:00,44.9,29.7,30.33,SSE,162,6.0,11.0,55,0.00,,,0.00,WUHU21623XXSP,2013-04-23 13:41:00,
2013-04-23 09:46:00,45.1,29.5,30.33,SSW,202,6.9,9.8,54,0.00,,,0.00,WUHU21623XXSP,2013-04-23 13:46:00,
2013-04-23 09:51:00,45.5,29.8,30.33,SE,135,7.8,9.8,54,0.00,,,0.00,WUHU21623XXSP,2013-04-23 13:51:00,
2013-04-23 09:56:00,45.8,30.1,30.33,South,180,6.5,13.9,54,0.00,,,0.00,WUHU21623XXSP,2013-04-23 13:56:00,
2013-04-23 10:01:00,46.0,30.3,30.32,SSE,154,4.2,13.9,54,0.00,,,0.00,WUHU21623XXSP,2013-04-23 14:01:00,
2013-04-23 10:06:00,46.4,30.2,30.32,SSE,157,4.5,10.7,53,0.00,,,0.00,WUHU21623XXSP,2013-04-23 14:06:00,
2013-04-23 10:11:00,46.6,29.9,30.31,SSE,157,6.0,8.9,52,0.00,,,0.00,WUHU21623XXSP,2013-04-23 14:11:00,
2013-04-23 10:16:00,46.9,30.2,30.31,SE,135,4.3,10.7,52,0.00,,,0.00,WUHU21623XXSP,2013-04-23 14:16:00,
2013-04-23 10:21:00,47.1,29.9,30.31,South,180,5.4,10.7,51,0.00,,,0.00,WUHU21623XXSP,2013-04-23 14:21:00,
2013-04-23 10:26:00,47.3,30.1,30.31,SSE,157,7.8,11.6,51,0.00,,,0.00,WUHU21623XXSP,2013-04-23 14:26:00,
2013-04-23 10:31:00,47.6,30.3,30.30,SSW,202,5.6,11.6,51,0.00,,,0.00,WUHU21623XXSP,2013-04-23 14:31:00,
2013-04-23 10:36:00,47.8,30.0,30.30,SSE,157,6.9,15.2,50,0.00,,,0.00,WUHU21623XXSP,2013-04-23 14:36:00,
2013-04-23 10:41:00,48.2,30.4,30.30,South,175,5.4,15.2,50,0.00,,,0.00,WUHU21623XXSP,2013-04-23 14:41:00,
2013-04-23 10:46:00,48.5,30.7,30.30,South,180,6.5,12.1,50,0.00,,,0.00,WUHU21623XXSP,2013-04-23 14:46:00,
2013-04-23 10:51:00,48.7,30.3,30.29,South,180,5.3,11.9,49,0.00,,,0.00,WUHU21623XXSP,2013-04-23 14:51:00,
2013-04-23 10:56:00,48.9,30.5,30.30,SE,135,6.3,10.7,49,0.00,,,0.00,WUHU21623XXSP,2013-04-23 14:56:00,
2013-04-23 11:01:00,49.4,31.0,30.30,SSE,167,5.7,12.8,49,0.00,,,0.00,WUHU21623XXSP,2013-04-23 15:01:00,
2013-04-23 11:06:00,49.6,30.6,30.29,WSW,247,6.5,12.8,48,0.00,,,0.00,WUHU21623XXSP,2013-04-23 15:06:00,
2013-04-23 11:11:00,50.2,31.2,30.29,SSW,202,6.5,12.8,48,0.00,,,0.00,WUHU21623XXSP,2013-04-23 15:11:00,
2013-04-23 11:16:00,50.3,31.3,30.29,SSE,157,4.3,9.6,48,0.00,,,0.00,WUHU21623XXSP,2013-04-23 15:16:00,
2013-04-23 11:21:00,50.5,31.5,30.29,SSE,157,7.6,12.1,48,0.00,,,0.00,WUHU21623XXSP,2013-04-23 15:21:00,
2013-04-23 11:26:00,50.9,31.3,30.29,SSE,157,8.3,12.1,47,0.00,,,0.00,WUHU21623XXSP,2013-04-23 15:26:00,
2013-04-23 11:31:00,51.2,31.0,30.28,SSW,209,3.8,11.2,46,0.00,,,0.00,WUHU21623XXSP,2013-04-23 15:31:00,
2013-04-23 11:36:00,51.4,31.2,30.28,SSE,164,4.6,11.2,46,0.00,,,0.00,WUHU21623XXSP,2013-04-23 15:36:00,
2013-04-23 11:41:00,51.8,32.1,30.28,SE,135,4.0,9.6,47,0.00,,,0.00,WUHU21623XXSP,2013-04-23 15:41:00,
2013-04-23 11:46:00,52.1,31.9,30.28,SSE,164,5.0,13.0,46,0.00,,,0.00,WUHU21623XXSP,2013-04-23 15:46:00,
2013-04-23 11:51:00,52.5,32.2,30.28,South,180,4.6,13.0,46,0.00,,,0.00,WUHU21623XXSP,2013-04-23 15:51:00,
2013-04-23 11:56:00,52.5,31.7,30.28,SW,225,5.1,8.9,45,0.00,,,0.00,WUHU21623XXSP,2013-04-23 15:56:00,
2013-04-23 12:01:00,52.7,31.8,30.27,SSE,157,6.7,8.9,45,0.00,,,0.00,WUHU21623XXSP,2013-04-23 16:01:00,
2013-04-23 12:06:00,53.0,32.1,30.27,SSE,167,6.3,8.9,45,0.00,,,0.00,WUHU21623XXSP,2013-04-23 16:06:00,
2013-04-23 12:11:00,53.2,31.7,30.27,SSE,157,8.1,12.3,44,0.00,,,0.00,WUHU21623XXSP,2013-04-23 16:11:00,
2013-04-23 12:16:00,53.4,31.3,30.27,SSE,168,4.3,12.3,43,0.00,,,0.00,WUHU21623XXSP,2013-04-23 16:16:00,
2013-04-23 12:21:00,53.6,31.5,30.27,SE,135,4.9,9.4,43,0.00,,,0.00,WUHU21623XXSP,2013-04-23 16:21:00,
2013-04-23 12:26:00,53.9,31.8,30.26,South,188,4.5,11.0,43,0.00,,,0.00,WUHU21623XXSP,2013-04-23 16:26:00,
2013-04-23 12:31:00,54.1,32.0,30.26,South,173,5.3,12.3,43,0.00,,,0.00,WUHU21623XXSP,2013-04-23 16:31:00,
2013-04-23 12:36:00,54.5,32.3,30.25,SSE,157,3.8,12.3,43,0.00,,,0.00,WUHU21623XXSP,2013-04-23 16:36:00,
2013-04-23 12:41:00,54.7,31.9,30.24,SSE,164,5.4,8.9,42,0.00,,,0.00,WUHU21623XXSP,2013-04-23 16:41:00,
2013-04-23 12:46:00,54.8,32.0,30.24,SSE,157,13.0,14.3,42,0.00,,,0.00,WUHU21623XXSP,2013-04-23 16:46:00,
2013-04-23 12:51:00,55.0,31.6,30.24,SSW,199,6.4,14.3,41,0.00,,,0.00,WUHU21623XXSP,2013-04-23 16:51:00,
2013-04-23 12:56:00,55.4,32.5,30.23,South,180,6.7,14.3,42,0.00,,,0.00,WUHU21623XXSP,2013-04-23 16:56:00,
2013-04-23 13:01:00,55.9,32.4,30.23,South,186,3.8,14.3,41,0.00,,,0.00,WUHU21623XXSP,2013-04-23 17:01:00,
2013-04-23 13:06:00,55.9,31.7,30.23,SSE,166,7.8,15.0,40,0.00,,,0.00,WUHU21623XXSP,2013-04-23 17:06:00,
2013-04-23 13:11:00,56.3,31.5,30.22,SSE,156,4.2,15.0,39,0.00,,,0.00,WUHU21623XXSP,2013-04-23 17:11:00,
2013-04-23 13:16:00,56.6,31.7,30.21,SSE,157,14.1,14.8,39,0.00,,,0.00,WUHU21623XXSP,2013-04-23 17:16:00,
2013-04-23 13:21:00,56.8,31.9,30.21,South,185,5.5,14.8,39,0.00,,,0.00,WUHU21623XXSP,2013-04-23 17:21:00,
2013-04-23 13:26:00,57.2,32.3,30.22,SSW,202,6.3,11.4,39,0.00,,,0.00,WUHU21623XXSP,2013-04-23 17:26:00,
2013-04-23 13:31:00,57.4,32.5,30.23,WSW,247,5.6,11.4,39,0.00,,,0.00,WUHU21623XXSP,2013-04-23 17:31:00,
2013-04-23 13:36:00,57.5,31.9,30.23,SSW,197,4.9,11.6,38,0.00,,,0.00,WUHU21623XXSP,2013-04-23 17:36:00,
2013-04-23 13:41:00,57.5,31.2,30.22,South,183,6.2,12.5,37,0.00,,,0.00,WUHU21623XXSP,2013-04-23 17:41:00,
2013-04-23 13:46:00,57.7,30.7,30.22,SSW,192,5.7,17.2,36,0.00,,,0.00,WUHU21623XXSP,2013-04-23 17:46:00,
2013-04-23 13:51:00,57.9,30.9,30.22,South,175,4.3,17.2,36,0.00,,,0.00,WUHU21623XXSP,2013-04-23 17:51:00,
2013-04-23 13:56:00,58.1,31.8,30.23,SSW,202,5.1,11.9,37,0.00,,,0.00,WUHU21623XXSP,2013-04-23 17:56:00,
2013-04-23 14:01:00,58.4,30.6,30.23,WSW,247,4.2,9.2,35,0.00,,,0.00,WUHU21623XXSP,2013-04-23 18:01:00,
2013-04-23 14:06:00,58.6,31.5,30.23,SSW,209,7.9,14.1,36,0.00,,,0.00,WUHU21623XXSP,2013-04-23 18:06:00,
2013-04-23 14:11:00,58.6,31.5,30.23,SE,135,3.8,14.1,36,0.00,,,0.00,WUHU21623XXSP,2013-04-23 18:11:00,
2013-04-23 14:16:00,58.8,31.7,30.23,WSW,247,5.1,10.3,36,0.00,,,0.00,WUHU21623XXSP,2013-04-23 18:16:00,
2013-04-23 14:21:00,59.0,31.2,30.23,SW,234,5.5,11.9,35,0.00,,,0.00,WUHU21623XXSP,2013-04-23 18:21:00,
2013-04-23 14:26:00,59.0,31.9,30.23,WSW,249,4.4,12.8,36,0.00,,,0.00,WUHU21623XXSP,2013-04-23 18:26:00,
2013-04-23 14:31:00,58.6,30.8,30.23,SW,230,4.4,12.8,35,0.00,,,0.00,WUHU21623XXSP,2013-04-23 18:31:00,
2013-04-23 14:36:00,58.8,31.0,30.23,WSW,247,6.5,11.4,35,0.00,,,0.00,WUHU21623XXSP,2013-04-23 18:36:00,
2013-04-23 14:41:00,58.6,29.4,30.22,WSW,244,6.1,10.3,33,0.00,,,0.00,WUHU21623XXSP,2013-04-23 18:41:00,
2013-04-23 14:46:00,59.0,29.7,30.22,South,180,6.3,10.3,33,0.00,,,0.00,WUHU21623XXSP,2013-04-23 18:46:00,
2013-04-23 14:51:00,59.2,31.3,30.22,WSW,247,7.8,8.7,35,0.00,,,0.00,WUHU21623XXSP,2013-04-23 18:51:00,
2013-04-23 14:56:00,59.3,30.7,30.22,SSW,208,3.0,10.3,34,0.00,,,0.00,WUHU21623XXSP,2013-04-23 18:56:00,
2013-04-23 15:01:00,59.5,31.6,30.22,ESE,112,6.5,12.5,35,0.00,,,0.00,WUHU21623XXSP,2013-04-23 19:01:00,
2013-04-23 15:06:00,59.7,31.1,30.21,SSW,205,6.0,13.4,34,0.00,,,0.00,WUHU21623XXSP,2013-04-23 19:06:00,
2013-04-23 15:11:00,59.9,31.2,30.21,WSW,247,4.9,13.4,34,0.00,,,0.00,WUHU21623XXSP,2013-04-23 19:11:00,
2013-04-23 15:16:00,59.9,30.5,30.20,WSW,247,4.0,8.7,33,0.00,,,0.00,WUHU21623XXSP,2013-04-23 19:16:00,
2013-04-23 15:21:00,60.2,30.8,30.20,WSW,237,4.4,8.9,33,0.00,,,0.00,WUHU21623XXSP,2013-04-23 19:21:00,
2013-04-23 15:26:00,59.9,29.7,30.19,South,189,3.8,8.9,32,0.00,,,0.00,WUHU21623XXSP,2013-04-23 19:26:00,
2013-04-23 15:31:00,59.9,30.5,30.19,SW,225,7.4,10.3,33,0.00,,,0.00,WUHU21623XXSP,2013-04-23 19:31:00,
2013-04-23 15:36:00,60.1,30.7,30.19,WSW,247,6.0,10.3,33,0.00,,,0.00,WUHU21623XXSP,2013-04-23 19:36:00,
2013-04-23 15:41:00,60.1,29.9,30.19,WSW,240,6.0,12.3,32,0.00,,,0.00,WUHU21623XXSP,2013-04-23 19:41:00,
2013-04-23 15:46:00,60.1,30.7,30.18,SE,135,2.7,12.3,33,0.00,,,0.00,WUHU21623XXSP,2013-04-23 19:46:00,
2013-04-23 15:51:00,60.2,30.8,30.16,SSE,161,5.7,10.5,33,0.00,,,0.00,WUHU21623XXSP,2013-04-23 19:51:00,
2013-04-23 15:56:00,60.4,30.2,30.16,SSW,202,5.6,11.6,32,0.00,,,0.00,WUHU21623XXSP,2013-04-23 19:56:00,
2013-04-23 16:01:00,60.6,30.4,30.16,SSE,166,4.4,11.6,32,0.00,,,0.00,WUHU21623XXSP,2013-04-23 20:01:00,
2013-04-23 16:06:00,61.1,30.8,30.15,South,180,7.6,14.1,32,0.00,,,0.00,WUHU21623XXSP,2013-04-23 20:06:00,
2013-04-23 16:11:00,62.6,31.3,30.15,South,173,6.2,14.1,31,0.00,,,0.00,WUHU21623XXSP,2013-04-23 20:11:00,
2013-04-23 16:16:00,63.1,31.0,30.15,SW,230,3.7,13.0,30,0.00,,,0.00,WUHU21623XXSP,2013-04-23 20:16:00,
2013-04-23 16:21:00,63.5,31.3,30.15,SW,225,7.6,12.3,30,0.00,,,0.00,WUHU21623XXSP,2013-04-23 20:21:00,
2013-04-23 16:26:00,64.0,30.9,30.15,South,175,3.4,10.7,29,0.00,,,0.00,WUHU21623XXSP,2013-04-23 20:26:00,
2013-04-23 16:31:00,64.7,31.5,30.15,SE,135,4.5,10.7,29,0.00,,,0.00,WUHU21623XXSP,2013-04-23 20:31:00,
2013-04-23 16:36:00,65.3,31.2,30.14,SSE,157,9.2,11.6,28,0.00,,,0.00,WUHU21623XXSP,2013-04-23 20:36:00,
2013-04-23 16:41:00,66.2,31.1,30.15,SSE,157,8.7,11.6,27,0.00,,,0.00,WUHU21623XXSP,2013-04-23 20:41:00,
2013-04-23 16:46:00,66.4,30.3,30.15,South,172,3.3,11.6,26,0.00,,,0.00,WUHU21623XXSP,2013-04-23 20:46:00,
2013-04-23 16:51:00,66.2,30.1,30.15,SE,128,2.9,9.8,26,0.00,,,0.00,WUHU21623XXSP,2013-04-23 20:51:00,
2013-04-23 16:57:00,65.6,29.6,30.15,South,180,7.4,11.9,26,0.00,,,0.00,WUHU21623XXSP,2013-04-23 20:57:00,
2013-04-23 17:02:00,64.7,28.9,30.15,South,180,8.5,14.1,26,0.00,,,0.00,WUHU21623XXSP,2013-04-23 21:02:00,
2013-04-23 17:07:00,64.4,28.6,30.14,SSE,157,5.6,14.1,26,0.00,,,0.00,WUHU21623XXSP,2013-04-23 21:07:00,
2013-04-23 17:12:00,63.8,29.0,30.14,SSW,212,2.9,11.0,27,0.00,,,0.00,WUHU21623XXSP,2013-04-23 21:12:00,
2013-04-23 17:17:00,63.7,28.9,30.14,South,175,4.8,12.3,27,0.00,,,0.00,WUHU21623XXSP,2013-04-23 21:17:00,
2013-04-23 17:22:00,63.5,28.7,30.14,South,180,4.0,12.3,27,0.00,,,0.00,WUHU21623XXSP,2013-04-23 21:22:00,
2013-04-23 17:27:00,63.1,28.4,30.13,SSW,204,3.1,10.5,27,0.00,,,0.00,WUHU21623XXSP,2013-04-23 21:27:00,
2013-04-23 17:32:00,62.9,28.2,30.13,SSE,168,5.7,11.9,27,0.00,,,0.00,WUHU21623XXSP,2013-04-23 21:32:00,
2013-04-23 17:37:00,62.6,28.0,30.13,SSE,157,5.6,13.0,27,0.00,,,0.00,WUHU21623XXSP,2013-04-23 21:37:00,
2013-04-23 17:42:00,62.4,28.7,30.13,SE,135,6.5,13.0,28,0.00,,,0.00,WUHU21623XXSP,2013-04-23 21:42:00,
2013-04-23 17:47:00,62.6,28.0,30.13,SW,225,8.7,11.4,27,0.00,,,0.00,WUHU21623XXSP,2013-04-23 21:47:00,
2013-04-23 17:52:00,62.8,28.1,30.13,SSE,153,2.6,13.0,27,0.00,,,0.00,WUHU21623XXSP,2013-04-23 21:52:00,
2013-04-23 17:57:00,63.1,28.4,30.13,SSE,157,13.4,13.4,27,0.00,,,0.00,WUHU21623XXSP,2013-04-23 21:57:00,
2013-04-23 18:02:00,62.9,28.2,30.12,South,180,8.5,14.5,27,0.00,,,0.00,WUHU21623XXSP,2013-04-23 22:02:00,
2013-04-23 18:07:00,62.8,28.1,30.11,SSE,168,2.9,14.5,27,0.00,,,0.00,WUHU21623XXSP,2013-04-23 22:07:00,
2013-04-23 18:12:00,62.9,28.2,30.11,South,180,5.4,9.2,27,0.00,,,0.00,WUHU21623XXSP,2013-04-23 22:12:00,
2013-04-23 18:17:00,62.9,28.2,30.11,SSE,166,5.5,11.0,27,0.00,,,0.00,WUHU21623XXSP,2013-04-23 22:17:00,
2013-04-23 18:22:00,62.8,28.1,30.11,SSE,157,7.4,11.0,27,0.00,,,0.00,WUHU21623XXSP,2013-04-23 22:22:00,
2013-04-23 18:27:00,62.2,27.6,30.11,South,184,3.3,10.7,27,0.00,,,0.00,WUHU21623XXSP,2013-04-23 22:27:00,
2013-04-23 18:32:00,61.9,28.2,30.11,South,172,5.7,10.3,28,0.00,,,0.00,WUHU21623XXSP,2013-04-23 22:32:00,
2013-04-23 18:37:00,61.5,27.9,30.11,SSE,163,2.6,10.3,28,0.00,,,0.00,WUHU21623XXSP,2013-04-23 22:37:00,
2013-04-23 18:42:00,61.1,27.5,30.11,South,180,6.3,8.5,28,0.00,,,0.00,WUHU21623XXSP,2013-04-23 22:42:00,
2013-04-23 18:47:00,60.4,26.9,30.11,SSE,159,4.7,8.5,28,0.00,,,0.00,WUHU21623XXSP,2013-04-23 22:47:00,
2013-04-23 18:52:00,59.5,27.0,30.11,SSE,157,6.3,9.6,29,0.00,,,0.00,WUHU21623XXSP,2013-04-23 22:52:00,
2013-04-23 18:57:00,59.0,26.6,30.11,SSW,194,3.1,9.6,29,0.00,,,0.00,WUHU21623XXSP,2013-04-23 22:57:00,
2013-04-23 19:02:00,58.4,26.9,30.11,South,191,3.2,9.6,30,0.00,,,0.00,WUHU21623XXSP,2013-04-23 23:02:00,
2013-04-23 19:07:00,57.5,26.1,30.11,South,180,1.6,7.6,30,0.00,,,0.00,WUHU21623XXSP,2013-04-23 23:07:00,
2013-04-23 19:12:00,57.2,26.6,30.11,SSW,201,3.3,6.9,31,0.00,,,0.00,WUHU21623XXSP,2013-04-23 23:12:00,
2013-04-23 19:17:00,56.6,26.8,30.11,SSE,157,6.3,6.9,32,0.00,,,0.00,WUHU21623XXSP,2013-04-23 23:17:00,
2013-04-23 19:22:00,56.1,26.4,30.11,South,180,6.5,7.8,32,0.00,,,0.00,WUHU21623XXSP,2013-04-23 23:22:00,
2013-04-23 19:27:00,55.6,26.0,30.11,SW,216,3.6,9.2,32,0.00,,,0.00,WUHU21623XXSP,2013-04-23 23:27:00,
2013-04-23 19:32:00,54.8,26.0,30.11,South,184,3.6,9.2,33,0.00,,,0.00,WUHU21623XXSP,2013-04-23 23:32:00,
2013-04-23 19:37:00,54.3,25.6,30.10,South,187,2.7,8.5,33,0.00,,,0.00,WUHU21623XXSP,2013-04-23 23:37:00,
2013-04-23 19:42:00,53.9,25.2,30.11,SSW,202,1.1,8.5,33,0.00,,,0.00,WUHU21623XXSP,2013-04-23 23:42:00,
2013-04-23 19:47:00,53.2,25.3,30.11,SSW,202,4.9,4.9,34,0.00,,,0.00,WUHU21623XXSP,2013-04-23 23:47:00,
2013-04-23 19:52:00,52.7,25.6,30.11,South,173,1.1,6.3,35,0.00,,,0.00,WUHU21623XXSP,2013-04-23 23:52:00,
2013-04-23 19:57:00,52.1,25.0,30.10,SSW,209,1.3,9.4,35,0.00,,,0.00,WUHU21623XXSP,2013-04-23 23:57:00,
2013-04-23 20:02:00,51.4,25.1,30.11,South,182,2.1,9.4,36,0.00,,,0.00,WUHU21623XXSP,2013-04-24 00:02:00,
2013-04-23 20:07:00,51.1,25.5,30.11,SSW,195,2.8,6.7,37,0.00,,,0.00,WUHU21623XXSP,2013-04-24 00:07:00,
2013-04-23 20:12:00,50.5,25.0,30.11,SSE,157,1.1,6.7,37,0.00,,,0.00,WUHU21623XXSP,2013-04-24 00:12:00,
2013-04-23 20:17:00,50.2,24.7,30.11,SSE,157,0.0,4.0,37,0.00,,,0.00,WUHU21623XXSP,2013-04-24 00:17:00,
2013-04-23 20:22:00,49.4,24.6,30.11,SE,135,0.0,4.5,38,0.00,,,0.00,WUHU21623XXSP,2013-04-24 00:22:00,
2013-04-23 20:27:00,48.7,25.3,30.10,SE,142,1.7,4.5,40,0.00,,,0.00,WUHU21623XXSP,2013-04-24 00:27:00,
2013-04-23 20:32:00,48.2,25.4,30.10,SE,135,0.9,3.4,41,0.00,,,0.00,WUHU21623XXSP,2013-04-24 00:32:00,
2013-04-23 20:37:00,47.6,25.5,30.10,SE,135,1.2,3.4,42,0.00,,,0.00,WUHU21623XXSP,2013-04-24 00:37:00,
2013-04-23 20:42:00,47.3,25.8,30.10,SE,135,2.2,2.9,43,0.00,,,0.00,WUHU21623XXSP,2013-04-24 00:42:00,
2013-04-23 20:47:00,46.9,25.4,30.10,SSE,157,5.4,5.4,43,0.00,,,0.00,WUHU21623XXSP,2013-04-24 00:47:00,
2013-04-23 20:52:00,46.9,26.0,30.10,South,180,4.7,6.0,44,0.00,,,0.00,WUHU21623XXSP,2013-04-24 00:52:00,
2013-04-23 20:57:00,46.7,25.8,30.10,South,180,8.5,8.5,44,0.00,,,0.00,WUHU21623XXSP,2013-04-24 00:57:00,
2013-04-23 21:02:00,46.9,26.5,30.10,SE,137,3.0,8.5,45,0.00,,,0.00,WUHU21623XXSP,2013-04-24 01:02:00,
2013-04-23 21:07:00,47.3,27.5,30.10,South,180,8.3,8.5,46,0.00,,,0.00,WUHU21623XXSP,2013-04-24 01:07:00,
2013-04-23 21:12:00,47.6,27.7,30.10,South,173,3.7,8.5,46,0.00,,,0.00,WUHU21623XXSP,2013-04-24 01:12:00,
2013-04-23 21:17:00,47.6,28.8,30.10,South,180,7.4,10.5,48,0.00,,,0.00,WUHU21623XXSP,2013-04-24 01:17:00,
2013-04-23 21:22:00,47.8,30.0,30.10,SE,146,4.8,10.5,50,0.00,,,0.00,WUHU21623XXSP,2013-04-24 01:22:00,
2013-04-23 21:27:00,47.8,30.5,30.10,South,180,5.8,11.0,51,0.00,,,0.00,WUHU21623XXSP,2013-04-24 01:27:00,
2013-04-23 21:32:00,47.8,31.0,30.09,SSE,158,7.3,11.9,52,0.00,,,0.00,WUHU21623XXSP,2013-04-24 01:32:00,
2013-04-23 21:37:00,47.8,31.5,30.09,SSE,158,8.9,17.9,53,0.00,,,0.00,WUHU21623XXSP,2013-04-24 01:37:00,
2013-04-23 21:42:00,47.8,32.0,30.08,SSE,157,10.7,17.9,54,0.00,,,0.00,WUHU21623XXSP,2013-04-24 01:42:00,
2013-04-23 21:47:00,47.6,32.3,30.08,SSE,156,7.7,13.0,55,0.00,,,0.00,WUHU21623XXSP,2013-04-24 01:47:00,
2013-04-23 21:52:00,47.6,32.3,30.08,South,180,6.7,11.4,55,0.00,,,0.00,WUHU21623XXSP,2013-04-24 01:52:00,
2013-04-23 21:57:00,47.3,32.4,30.08,SSE,155,6.3,12.1,56,0.00,,,0.00,WUHU21623XXSP,2013-04-24 01:57:00,
2013-04-23 22:02:00,47.1,32.7,30.08,SSE,167,5.1,12.1,57,0.00,,,0.00,WUHU21623XXSP,2013-04-24 02:02:00,
2013-04-23 22:07:00,46.9,32.5,30.08,South,184,3.3,9.8,57,0.00,,,0.00,WUHU21623XXSP,2013-04-24 02:07:00,
2013-04-23 22:12:00,46.7,32.8,30.08,South,181,5.1,9.8,58,0.00,,,0.00,WUHU21623XXSP,2013-04-24 02:12:00,
2013-04-23 22:17:00,46.6,33.1,30.08,SSE,157,14.8,16.3,59,0.00,,,0.00,WUHU21623XXSP,2013-04-24 02:17:00,
2013-04-23 22:22:00,46.7,33.6,30.08,South,180,9.2,17.4,60,0.00,,,0.00,WUHU21623XXSP,2013-04-24 02:22:00,
2013-04-23 22:27:00,46.7,33.6,30.08,SSE,157,7.6,18.6,60,0.00,,,0.00,WUHU21623XXSP,2013-04-24 02:27:00,
2013-04-23 22:32:00,46.7,33.6,30.08,SSE,161,6.0,17.9,60,0.00,,,0.00,WUHU21623XXSP,2013-04-24 02:32:00,
2013-04-23 22:37:00,46.7,34.0,30.08,East,90,8.3,17.9,61,0.00,,,0.00,WUHU21623XXSP,2013-04-24 02:37:00,
2013-04-23 22:43:00,46.4,33.8,30.08,SSE,157,10.3,18.6,61,0.00,,,0.00,WUHU21623XXSP,2013-04-24 02:43:00,
2013-04-23 22:48:00,46.4,33.8,30.08,SSE,148,9.6,18.6,61,0.00,,,0.00,WUHU21623XXSP,2013-04-24 02:48:00,
2013-04-23 22:53:00,46.0,33.4,30.08,SSE,154,7.6,16.8,61,0.00,,,0.00,WUHU21623XXSP,2013-04-24 02:53:00,
2013-04-23 22:58:00,46.0,33.8,30.08,SE,135,11.6,13.2,62,0.00,,,0.00,WUHU21623XXSP,2013-04-24 02:58:00,
2013-04-23 23:04:00,45.8,34.0,30.07,SE,139,6.6,14.3,63,0.00,,,0.00,WUHU21623XXSP,2013-04-24 03:04:00,
2013-04-23 23:09:00,45.7,33.9,30.07,SE,143,8.7,14.3,63,0.00,,,0.00,WUHU21623XXSP,2013-04-24 03:09:00,
2013-04-23 23:14:00,45.5,34.1,30.07,SE,135,6.0,13.6,64,0.00,,,0.00,WUHU21623XXSP,2013-04-24 03:14:00,
2013-04-23 23:19:00,45.3,33.9,30.07,SE,135,6.9,12.8,64,0.00,,,0.00,WUHU21623XXSP,2013-04-24 03:19:00,
2013-04-23 23:24:00,45.3,34.3,30.06,SSE,157,5.4,12.1,65,0.00,,,0.00,WUHU21623XXSP,2013-04-24 03:24:00,
2013-04-23 23:29:00,45.1,34.1,30.06,SE,135,5.1,11.4,65,0.00,,,0.00,WUHU21623XXSP,2013-04-24 03:29:00,
2013-04-23 23:34:00,44.9,34.3,30.05,SSE,157,6.0,11.4,66,0.00,,,0.00,WUHU21623XXSP,2013-04-24 03:34:00,
2013-04-23 23:39:00,44.9,34.3,30.06,SE,146,7.7,15.4,66,0.00,,,0.00,WUHU21623XXSP,2013-04-24 03:39:00,
2013-04-23 23:44:00,44.9,34.7,30.05,SSE,157,8.5,15.4,67,0.00,,,0.00,WUHU21623XXSP,2013-04-24 03:44:00,
2013-04-23 23:50:00,44.8,34.6,30.05,ESE,112,6.3,15.0,67,0.00,,,0.00,WUHU21623XXSP,2013-04-24 03:50:00,
2013-04-23 23:55:00,44.6,34.4,30.05,SSE,156,7.5,14.3,67,0.00,,,0.00,WUHU21623XXSP,2013-04-24 03:55:00,